Gustavus, AK

1:03 AM AKST on February 25, 2018 (GMT -0900)
Gustavus

Weather History for PAGS - February, 2013

Change the Weather History Date:

Monday, February 4, 2013

  Actual Average Record
Temperature  
Mean Temperature 34 °F -  
Max Temperature 39 °F 35 °F 48 °F (2017)
Min Temperature 28 °F 22 °F -5 °F (1989)
Degree Days  
Heating Degree Days 32    
Moisture  
Dew Point 30 °F    
Average Humidity 83    
Maximum Humidity 93    
Minimum Humidity 70    
Precipitation  
Precipitation 0.00 in - - ()
Sea Level Pressure  
Sea Level Pressure 29.78 in    
Wind  
Wind Speed 5 mph (East)    
Max Wind Speed 10 mph    
Max Gust Speed -    
Visibility 9 miles    
Events      
Averages and records for this station are not official NWS values.
T = Trace of Precipitation, MM = Missing Value Source: NWS Daily Summary

Daily Weather History Graph

Daily Weather History Graph

Search for Another Location

Airport or City:

Trip Planner

Search our weather history database for the weather conditions in past years. The results will help you decide how hot, cold, wet, or windy it might be!

Date:

Astronomy

Feb. 04, 2013 Rise Set
Actual Time 8:00 AM AKST 4:33 PM AKST
Civil Twilight 7:17 AM AKST 5:17 PM AKST
Nautical Twilight 6:29 AM AKST 6:05 PM AKST
Astronomical Twilight 5:43 AM AKST 6:51 PM AKST
Moon 3:05 AM AKST (2/4) 10:40 AM AKST (2/4)
Length of Visible Light 10h 00m
Length of Day
8h 32m
Waning Crescent, 35% of the Moon is Illuminated
Feb 4
Waning Crescent
Feb 9
New
Feb 17
First Quarter
Feb 25
Full
Mar 4
Last Quarter

Hourly Weather History & Observations

Time (AKST) Temp. Windchill Dew Point Humidity Pressure Visibility Wind Dir Wind Speed Gust Speed Precip Events Conditions
12:16 AM 35.6 °F 29.2 °F 30.2 °F 81% 29.79 in 4.0 mi ESE 8.1 mph - N/A   Overcast
1:56 AM 35.6 °F 29.9 °F 30.2 °F 81% 29.81 in 10.0 mi ESE 6.9 mph - N/A   Overcast
2:16 AM 35.6 °F 32.8 °F 30.2 °F 81% 29.81 in 10.0 mi South 3.5 mph - N/A   Overcast
2:36 AM 35.6 °F 30.7 °F 30.2 °F 81% 29.81 in 10.0 mi SE 5.8 mph - N/A   Mostly Cloudy
2:56 AM 35.6 °F 28.6 °F 32.0 °F 87% 29.81 in 10.0 mi SE 9.2 mph - N/A   Overcast
3:16 AM 35.6 °F 30.7 °F 30.2 °F 81% 29.82 in 10.0 mi SE 5.8 mph - N/A   Overcast
3:36 AM 35.6 °F 29.2 °F 30.2 °F 81% 29.82 in 10.0 mi ESE 8.1 mph - N/A   Overcast
3:56 AM 35.6 °F 29.9 °F 30.2 °F 81% 29.82 in 10.0 mi SSE 6.9 mph - N/A   Overcast
4:16 AM 35.6 °F 29.2 °F 32.0 °F 87% 29.82 in 10.0 mi ESE 8.1 mph - N/A   Overcast
4:36 AM 35.6 °F 29.2 °F 30.2 °F 81% 29.82 in 10.0 mi SSE 8.1 mph - N/A   Overcast
4:56 AM 35.6 °F 29.9 °F 32.0 °F 87% 29.82 in 10.0 mi SE 6.9 mph - N/A   Overcast
5:16 AM 35.6 °F 30.7 °F 30.2 °F 81% 29.82 in 10.0 mi SE 5.8 mph - N/A   Mostly Cloudy
5:36 AM 35.6 °F 32.8 °F 30.2 °F 81% 29.82 in 10.0 mi East 3.5 mph - N/A   Overcast
5:56 AM 35.6 °F 29.9 °F 32.0 °F 87% 29.82 in 10.0 mi ESE 6.9 mph - N/A   Overcast
6:16 AM 35.6 °F 29.9 °F 32.0 °F 87% 29.82 in 10.0 mi ESE 6.9 mph - N/A   Mostly Cloudy
6:36 AM 35.6 °F 32.8 °F 30.2 °F 81% 29.83 in 10.0 mi East 3.5 mph - N/A   Mostly Cloudy
6:56 AM 35.6 °F 31.7 °F 30.2 °F 81% 29.83 in 10.0 mi SE 4.6 mph - N/A   Overcast
7:16 AM 35.6 °F 31.7 °F 32.0 °F 87% 29.83 in 10.0 mi SE 4.6 mph - N/A   Overcast
7:36 AM 35.6 °F 30.7 °F 30.2 °F 81% 29.83 in 10.0 mi ESE 5.8 mph - N/A   Overcast
7:56 AM 35.6 °F 30.7 °F 30.2 °F 81% 29.83 in 10.0 mi ESE 5.8 mph - N/A   Overcast
8:16 AM 35.6 °F 31.7 °F 32.0 °F 87% 29.84 in 10.0 mi East 4.6 mph - N/A   Overcast
8:36 AM 35.6 °F 31.7 °F 30.2 °F 81% 29.84 in 10.0 mi ESE 4.6 mph - N/A   Overcast
8:56 AM 35.6 °F 29.9 °F 30.2 °F 81% 29.84 in 10.0 mi SE 6.9 mph - N/A   Overcast
9:16 AM 35.6 °F 32.8 °F 32.0 °F 87% 29.84 in 10.0 mi SE 3.5 mph - N/A   Overcast
9:36 AM 35.6 °F 32.8 °F 32.0 °F 87% 29.84 in 10.0 mi East 3.5 mph - N/A   Overcast
9:56 AM 35.6 °F 32.8 °F 32.0 °F 87% 29.84 in 10.0 mi East 3.5 mph - N/A   Overcast
10:16 AM 37.4 °F 33.8 °F 32.0 °F 81% 29.85 in 10.0 mi ESE 4.6 mph - N/A   Overcast
10:36 AM 35.6 °F - 32.0 °F 87% 29.85 in 10.0 mi Calm Calm - N/A   Overcast
10:56 AM 37.4 °F - 32.0 °F 81% 29.86 in 10.0 mi Calm Calm - N/A   Overcast
11:16 AM 37.4 °F 32.1 °F 32.0 °F 81% 29.85 in 10.0 mi ESE 6.9 mph - N/A   Overcast
11:36 AM 37.4 °F 33.8 °F 32.0 °F 81% 29.86 in 10.0 mi ESE 4.6 mph - N/A   Overcast
11:56 AM 37.4 °F 32.8 °F 32.0 °F 81% 29.85 in 10.0 mi ESE 5.8 mph - N/A   Overcast
12:16 PM 37.4 °F 32.1 °F 32.0 °F 81% 29.85 in 10.0 mi SE 6.9 mph - N/A   Overcast
12:36 PM 37.4 °F 32.1 °F 32.0 °F 81% 29.84 in 10.0 mi ESE 6.9 mph - N/A   Overcast
12:56 PM 37.4 °F 32.8 °F 30.2 °F 75% 29.84 in 10.0 mi SE 5.8 mph - N/A   Overcast
1:16 PM 37.4 °F 32.8 °F 32.0 °F 81% 29.83 in 10.0 mi SE 5.8 mph - N/A   Overcast
1:36 PM 37.4 °F 34.9 °F 32.0 °F 81% 29.83 in 10.0 mi SE 3.5 mph - N/A   Mostly Cloudy
1:56 PM 37.4 °F - 30.2 °F 75% 29.82 in 10.0 mi Calm Calm - N/A   Scattered Clouds
2:16 PM 39.2 °F - 33.8 °F 81% 29.82 in 10.0 mi Calm Calm - N/A   Partly Cloudy
2:36 PM 39.2 °F - 32.0 °F 75% 29.82 in 10.0 mi Calm Calm - N/A   Clear
2:56 PM 37.4 °F 32.8 °F 30.2 °F 75% 29.81 in 10.0 mi WSW 5.8 mph - N/A   Mostly Cloudy
3:16 PM 39.2 °F 37.0 °F 30.2 °F 70% 29.81 in 10.0 mi WSW 3.5 mph - N/A   Overcast
3:36 PM 37.4 °F 32.8 °F 33.8 °F 87% 29.80 in 10.0 mi NW 5.8 mph - N/A   Overcast
3:56 PM 35.6 °F 29.9 °F 32.0 °F 87% 29.80 in 10.0 mi NW 6.9 mph - N/A   Overcast
4:16 PM 35.6 °F 29.9 °F 30.2 °F 81% 29.79 in 10.0 mi NNW 6.9 mph - N/A   Overcast
4:36 PM 35.6 °F 31.7 °F 30.2 °F 81% 29.79 in 10.0 mi North 4.6 mph - N/A   Overcast
4:56 PM 35.6 °F 28.0 °F 30.2 °F 81% 29.78 in 10.0 mi North 10.4 mph - N/A   Overcast
5:16 PM 35.6 °F 31.7 °F 30.2 °F 81% 29.77 in 10.0 mi NW 4.6 mph - N/A   Scattered Clouds
5:36 PM 33.8 °F 30.8 °F 30.2 °F 87% 29.77 in 10.0 mi WNW 3.5 mph - N/A   Clear
5:56 PM 32.0 °F - 28.4 °F 87% 29.75 in 10.0 mi Calm Calm - N/A   Clear
6:16 PM 32.0 °F 26.4 °F 28.4 °F 87% 29.74 in 10.0 mi NNW 5.8 mph - N/A   Clear
6:36 PM 32.0 °F 28.7 °F 28.4 °F 87% 29.73 in 10.0 mi NNW 3.5 mph - N/A   Clear
6:56 PM 32.0 °F - 28.4 °F 87% 29.72 in 10.0 mi Calm Calm - N/A   Clear
7:16 PM 32.0 °F - 28.4 °F 87% 29.71 in 10.0 mi Calm Calm - N/A   Clear
7:36 PM 30.2 °F - 26.6 °F 86% 29.70 in 7.0 mi Calm Calm - N/A   Clear
7:56 PM 30.2 °F - 26.6 °F 86% 29.70 in 2.5 mi Calm Calm - N/A   Partly Cloudy
8:16 PM 28.4 °F - 24.8 °F 86% 29.69 in 0.5 mi Calm Calm - N/A   Overcast
8:36 PM 30.2 °F - 26.6 °F 86% 29.68 in 0.2 mi Calm Calm - N/A   Overcast
8:56 PM 28.4 °F 23.3 °F 26.6 °F 93% 29.67 in 0.5 mi NNW 4.6 mph - N/A   Overcast
9:16 PM 28.4 °F - 24.8 °F 86% 29.67 in 3.0 mi Calm Calm - N/A   Partly Cloudy
9:36 PM 28.4 °F 24.6 °F 24.8 °F 86% 29.65 in 10.0 mi NNW 3.5 mph - N/A   Clear
9:56 PM 28.4 °F 22.2 °F 24.8 °F 86% 29.64 in 10.0 mi NNW 5.8 mph - N/A   Clear
10:16 PM 30.2 °F 23.4 °F 26.6 °F 86% 29.63 in 10.0 mi NNW 6.9 mph - N/A   Clear
10:36 PM 30.2 °F 21.9 °F 26.6 °F 86% 29.62 in 10.0 mi NNW 9.2 mph - N/A   Clear
10:56 PM 30.2 °F 21.9 °F 26.6 °F 86% 29.61 in 10.0 mi NNW 9.2 mph - N/A   Clear
11:16 PM 30.2 °F 24.3 °F 26.6 °F 86% 29.59 in 10.0 mi NNW 5.8 mph - N/A   Clear
11:36 PM 30.2 °F 23.4 °F 26.6 °F 86% 29.59 in 10.0 mi North 6.9 mph - N/A   Clear
11:56 PM 30.2 °F 25.4 °F 24.8 °F 80% 29.58 in 10.0 mi NNW 4.6 mph - N/A   Clear